Regional Weather Roundup
Issued by NWS

Home | Current Version | Previous Version | Text Only | Print | Product List | Glossary Off
Versions: 1 2 3 4 5 6 7 8 9 10 11 12 13 14 15 16 17 18 19 20 21 22 23 24 25 26

000
ASUS45 KTFX 270510
RWRMT
MONTANA REGIONAL WEATHER ROUNDUP
NATIONAL WEATHER SERVICE GREAT FALLS MT
1100 PM MDT WED JUL 26 2017

NOTE: "FAIR" INDICATES FEW OR NO CLOUDS BELOW 12000 FEET WITH NO
SIGNIFICANT WEATHER AND/OR OBSTRUCTIONS TO VISIBILITY.

MTZ001>007-043-270600-
WEST OF THE DIVIDE

CITY           SKY/WX    TMP DP  RH WIND       PRES   REMARKS
KALISPELL      MOCLDY    64  50  60 CALM      29.99R
MISSOULA       MOCLDY    76  48  37 SE8       30.05R
BUTTE          MOCLDY    66  45  46 CALM      30.21S
MULLAN PASS    PTCLDY    67  32  27 W3        30.22F
DEER LODGE       N/A     66  50  55 W6        30.16S
EUREKA           N/A     75  34  22 MISG      29.97R
LIBBY            N/A     72  41  33 CALM      29.97S
$$

MTZ008-052>055-270600-
SOUTHWEST MONTANA

CITY           SKY/WX    TMP DP  RH WIND       PRES   REMARKS
BOZEMAN        PTCLDY    66  54  65 SE10      30.15S
DILLON         PTCLDY    66  46  48 S7        30.20R
W YELLOWSTONE  CLOUDY    54  54 100 CALM      30.33R
ENNIS          CLEAR     63  48  59 S9        30.27R
THREE FORKS      N/A     66  49  54 CALM      30.11F
$$

MTZ009-010-012-014-046-048-049-054-270600-
EAST SLOPES AND CENTRAL MONTANA

CITY           SKY/WX    TMP DP  RH WIND       PRES   REMARKS
CUT BANK       MOCLDY    76  30  18 SW5       30.04R
GREAT FALLS    CLOUDY    74  42  31 SW9       30.02S
MALMSTROM AFB  MOCLDY    76  42  29 SW9       30.01F
HELENA         CLOUDY    77  46  33 S5        30.07R
CHOTEAU          N/A     70  39  32 NE7       30.06S
$$

MTZ011-013-016-021-045-047-050-051-270600-
NORTH CENTRAL MONTANA

CITY           SKY/WX    TMP DP  RH WIND       PRES   REMARKS
HAVRE          PTCLDY    76  46  34 E10       29.98S
LEWISTOWN      PTCLDY    69  46  43 SE7       30.07F
N BAR RANCH      N/A     68  43  40 NW5       30.13S
CHINOOK          N/A     73  50  43 CALM      29.98S
$$

MTZ017>020-022>027-061-062-270600-
NORTHEAST MONTANA

CITY           SKY/WX    TMP DP  RH WIND       PRES   REMARKS
GLASGOW        PTCLDY    80  45  28 E18G26    29.99F
JORDAN           N/A     77  44  30 E6        29.99S
SIDNEY         CLEAR     76  50  40 E8        30.07R
WOLF POINT     PTCLDY    77  47  34 E12       30.03R
MALTA          PTCLDY    73  46  38 NE9       29.99S
PLENTYWOOD       N/A     72  52  49 E13       30.09R
POPLAR           N/A     79  50  36 E14G20    30.04R
SCOBEY           N/A     74  46  36 E13       30.06
$$

MTZ028>42-056>058-270600-
SOUTHCENTRAL AND SOUTHEAST MONTANA

CITY           SKY/WX    TMP DP  RH WIND       PRES   REMARKS
BAKER          CLEAR     75  46  35 S13       30.09S
BILLINGS       CLOUDY    76  51  41 S8        30.05S
LIVINGSTON     PTCLDY    71  51  49 SW12      30.15S
MILES CITY     CLEAR     82  48  30 SE13      30.01R
BIG TIMBER     CLOUDY    68  54  60 W10       30.16F
EKALAKA          N/A     76  46  34 SE12      30.10R
FORSYTH          N/A     81  48  32 SE5       29.99S
LAUREL           N/A     71  52  51 CALM      30.05F
$$

REGIONAL REPORTS...DAKOTAS

CITY           SKY/WX    TMP DP  RH WIND       PRES   REMARKS
WILLISTON      PTCLDY    77  51  40 E15       30.09R
MINOT          PTCLDY    67  54  63 SE5       30.12R
DICKINSON      CLEAR     66  51  58 E9        30.12R
BEACH            N/A     72  48  43 E14       30.12R
CROSBY         MOCLDY    68  54  60 SE7       30.11S
TIOGA            N/A     68  52  56 E8        30.14S
WATFORD CITY     N/A     70  50  49 E9        30.10R
BISMARCK       CLEAR     66  55  67 E7        30.14R
GRAND FORKS    CLEAR     62  60  93 W5        30.09R
FARGO          CLEAR     62  59  90 CALM      30.09R
BUFFALO SD       N/A     71  52  50 SE9       30.07R
RAPID CITY     MOCLDY    69  51  52 SE6       30.17R
$$

REGIONAL REPORTS...WYOMING/IDAHO/WASHINGTON

CITY           SKY/WX    TMP DP  RH WIND       PRES   REMARKS
GILLETTE       CLOUDY    71  53  52 S13       30.17F
SHERIDAN       CLOUDY    71  52  50 SE8       30.09S
BUFFALO WY     CLOUDY    69  50  50 SW24G33   30.19F
CODY           CLEAR     71  47  42 CALM      30.18F
YELLOWSTONE LA   N/A     55  45  68 CALM      30.42R
IDAHO FALLS    LGT RAIN  62  58  86 SE16      30.22F
BOISE          MOCLDY    78  51  38 N15       30.08R
SPOKANE        MOCLDY    80  42  25 S8        29.97R
$$

REGIONAL REPORTS...ALBERTA

CITY           SKY/WX    TMP DP  RH WIND       PRES   REMARKS
EDMONTON       CLEAR     63  57  82 E6        29.95R
CALGARY        PTCLDY    72  43  35 VRB3      29.99S
LETHBRIDGE     CLEAR     63  46  55 SE7       29.95S
MEDICINE HAT   CLEAR     73  43  33 E2        29.94S
WATERTON GATE    N/A     59  39  47 S7          N/A
CARDSTON         N/A     68  41  37 S5          N/A
MILK RIVER       N/A     66  41  39 S2          N/A
ONEFOUR          N/A     68  34  28 E13         N/A
$$

REGIONAL REPORTS...SASKATCHEWAN

CITY           SKY/WX    TMP DP  RH WIND       PRES   REMARKS
SWIFT CURRENT  CLEAR     63  48  59 SE12      30.05S
REGINA         CLEAR     68  50  52 SE10      30.08R
SASKATOON      CLEAR     64  55  72 E7        30.05F
CYPRESS HILLS    N/A     68  34  28 E6          N/A
VAL MARIE        N/A     63  43  48 NE9         N/A
ROCKGLEN         N/A     68  43  40 E3          N/A
ASSINIBOIA       N/A     63  57  82 E2          N/A
$$




USA.gov is the U.S. government's official web portal to all federal, state and local government web resources and services.